PDA437 LUKK-LTFJ

Flight info

Callsign PDA437
Flight time 1h 15m
Altitude 37000
Route LIPTA DCT KODRU DCT RIPGA DCT PILAT DCT LUGEB DCT MATEL L620 RIXEN/N0389F270 L620 GINLI
Aircraft A320/M-SDE3FGHIRWY/LB1

Departure

Time 2026-05-09 11:50
Airport Chişinău International Airport (LUKK)

Arrival

Time 2026-05-09 13:05
Airport Istanbul Sabiha Gökçen International Airport (LTFJ)
Time Latitude Longitude Altitude Speed Heading
2026-05-09 11:14 46.93378 28.93419 408 ft 0 kts 186°
2026-05-09 11:34 46.93396 28.93421 408 ft 4 kts 173°
2026-05-09 11:34 46.93420 28.93409 404 ft 4 kts 137°
2026-05-09 11:35 46.93433 28.93380 408 ft 2 kts 97°
2026-05-09 11:35 46.93433 28.93376 408 ft 0 kts 96°
2026-05-09 11:38 46.93433 28.93379 408 ft 1 kts 96°
2026-05-09 11:39 46.93431 28.93405 408 ft 4 kts 96°
2026-05-09 11:39 46.93425 28.93461 405 ft 7 kts 108°
2026-05-09 11:39 46.93376 28.93483 408 ft 9 kts 185°
2026-05-09 11:40 46.93218 28.93453 409 ft 13 kts 186°
2026-05-09 11:40 46.93164 28.93433 411 ft 7 kts 219°
2026-05-09 11:40 46.93158 28.93357 410 ft 9 kts 277°
2026-05-09 11:40 46.93167 28.93250 410 ft 12 kts 277°
2026-05-09 11:41 46.93178 28.93119 410 ft 14 kts 277°
2026-05-09 11:41 46.93192 28.92961 409 ft 17 kts 277°
2026-05-09 11:41 46.93207 28.92771 408 ft 20 kts 277°
2026-05-09 11:41 46.93226 28.92549 406 ft 21 kts 277°
2026-05-09 11:42 46.93239 28.92397 406 ft 15 kts 277°
2026-05-09 11:42 46.93252 28.92244 407 ft 16 kts 277°
2026-05-09 11:42 46.93260 28.92145 407 ft 13 kts 277°
2026-05-09 11:42 46.93201 28.92021 408 ft 13 kts 194°
2026-05-09 11:43 46.93104 28.91988 408 ft 16 kts 187°
2026-05-09 11:43 46.93028 28.91989 408 ft 17 kts 178°
2026-05-09 11:43 46.92921 28.91994 408 ft 13 kts 178°
2026-05-09 11:43 46.92895 28.91995 408 ft 0 kts 178°
2026-05-09 11:45 46.92890 28.91996 408 ft 2 kts 178°
2026-05-09 11:45 46.92845 28.91997 408 ft 10 kts 178°
2026-05-09 11:45 46.92775 28.91978 409 ft 11 kts 221°
2026-05-09 11:46 46.92754 28.91855 408 ft 15 kts 268°
2026-05-09 11:46 46.92751 28.91691 407 ft 17 kts 268°
2026-05-09 11:46 46.92747 28.91506 408 ft 19 kts 268°
2026-05-09 11:46 46.92743 28.91304 407 ft 20 kts 268°
2026-05-09 11:47 46.92739 28.91106 408 ft 18 kts 268°
2026-05-09 11:47 46.92736 28.90962 406 ft 11 kts 268°
2026-05-09 11:47 46.92745 28.90864 408 ft 10 kts 299°
2026-05-09 11:47 46.92760 28.90773 405 ft 9 kts 229°
2026-05-09 11:48 46.92732 28.90823 405 ft 8 kts 89°
2026-05-09 11:48 46.92734 28.90859 406 ft 0 kts 88°
2026-05-09 11:49 46.92734 28.90871 405 ft 9 kts 88°
2026-05-09 11:49 46.92744 28.91330 407 ft 81 kts 88°
2026-05-09 11:49 46.92767 28.92442 410 ft 135 kts 88°
2026-05-09 11:49 46.92801 28.94007 619 ft 161 kts 89°
2026-05-09 11:50 46.92838 28.95643 1236 ft 162 kts 89°
2026-05-09 11:50 46.92877 28.97309 1843 ft 172 kts 90°
2026-05-09 11:50 46.92922 28.99177 2150 ft 195 kts 89°
2026-05-09 11:50 46.92962 29.01298 2421 ft 224 kts 91°
2026-05-09 11:51 46.92996 29.03737 2901 ft 250 kts 91°
2026-05-09 11:51 46.92752 29.06213 3769 ft 253 kts 115°
2026-05-09 11:51 46.91578 29.08134 4661 ft 257 kts 151°
2026-05-09 11:51 46.89863 29.08659 5607 ft 262 kts 185°
2026-05-09 11:52 46.88175 29.07601 6553 ft 272 kts 219°
2026-05-09 11:52 46.87001 29.05421 7458 ft 278 kts 237°
2026-05-09 11:52 46.86071 29.02907 8383 ft 282 kts 239°
2026-05-09 11:52 46.85148 29.00348 9305 ft 285 kts 239°
2026-05-09 11:53 46.84232 28.97804 10179 ft 288 kts 239°
2026-05-09 11:53 46.83216 28.95150 10560 ft 308 kts 235°
2026-05-09 11:53 46.81944 28.92527 10933 ft 324 kts 230°
2026-05-09 11:53 46.80524 28.89941 11598 ft 330 kts 228°
2026-05-09 11:54 46.79055 28.87376 12322 ft 334 kts 228°
2026-05-09 11:54 46.77553 28.84757 13045 ft 339 kts 228°
2026-05-09 11:54 46.76044 28.82086 13789 ft 343 kts 229°
2026-05-09 11:54 46.74541 28.79377 14434 ft 347 kts 229°
2026-05-09 11:55 46.73036 28.76625 15079 ft 350 kts 230°
2026-05-09 11:56 46.65326 28.62425 18284 ft 365 kts 230°
2026-05-09 11:56 46.63757 28.59546 18855 ft 368 kts 229°
2026-05-09 11:56 46.61981 28.56874 19402 ft 369 kts 219°
2026-05-09 11:57 46.59909 28.54625 19981 ft 371 kts 214°
2026-05-09 11:57 46.57805 28.52428 20581 ft 373 kts 215°
2026-05-09 11:57 46.55695 28.50226 21111 ft 376 kts 215°
2026-05-09 11:57 46.53566 28.48009 21637 ft 380 kts 215°
2026-05-09 11:58 46.51413 28.45761 22169 ft 382 kts 215°
2026-05-09 11:58 46.49253 28.43502 22694 ft 385 kts 215°
2026-05-09 11:58 46.47082 28.41236 23218 ft 388 kts 215°
2026-05-09 11:58 46.44868 28.38923 23704 ft 391 kts 216°
2026-05-09 11:59 46.42645 28.36607 24114 ft 394 kts 215°
2026-05-09 11:59 46.40415 28.34289 24546 ft 396 kts 215°
2026-05-09 11:59 46.38181 28.31973 24993 ft 398 kts 215°
2026-05-09 11:59 46.35935 28.29645 25411 ft 400 kts 215°
2026-05-09 12:00 46.33674 28.27305 25824 ft 403 kts 215°
2026-05-09 12:00 46.31367 28.24919 26284 ft 405 kts 215°
2026-05-09 12:00 46.29095 28.22571 26716 ft 407 kts 215°
2026-05-09 12:00 46.26767 28.20170 27140 ft 409 kts 215°
2026-05-09 12:01 46.24450 28.17783 27568 ft 412 kts 215°
2026-05-09 12:01 46.22097 28.15371 27978 ft 414 kts 213°
2026-05-09 12:01 46.19580 28.13335 28366 ft 417 kts 204°
2026-05-09 12:01 46.16850 28.11948 28758 ft 419 kts 194°
2026-05-09 12:02 46.13981 28.11191 29147 ft 423 kts 189°
2026-05-09 12:02 46.11068 28.10552 29551 ft 425 kts 189°
2026-05-09 12:02 46.08114 28.09897 29939 ft 428 kts 189°
2026-05-09 12:02 46.05160 28.09234 30294 ft 430 kts 189°
2026-05-09 12:03 46.02202 28.08568 30625 ft 432 kts 189°
2026-05-09 12:03 45.99220 28.07897 30960 ft 434 kts 189°
2026-05-09 12:03 45.96241 28.07224 31314 ft 436 kts 189°
2026-05-09 12:03 45.93264 28.06551 31837 ft 435 kts 189°
2026-05-09 12:04 45.90277 28.05881 32427 ft 432 kts 189°
2026-05-09 12:04 45.87300 28.05218 32966 ft 430 kts 189°
2026-05-09 12:04 45.84353 28.04562 33493 ft 428 kts 189°
2026-05-09 12:04 45.81439 28.03911 33996 ft 426 kts 189°
2026-05-09 12:05 45.78497 28.03252 34437 ft 425 kts 189°
2026-05-09 12:05 45.75585 28.02602 34805 ft 425 kts 189°
2026-05-09 12:05 45.72671 28.01956 35155 ft 425 kts 189°
2026-05-09 12:05 45.69766 28.01317 35485 ft 425 kts 189°
2026-05-09 12:06 45.66819 28.00667 35813 ft 425 kts 189°
2026-05-09 12:06 45.63893 28.00021 36126 ft 425 kts 189°
2026-05-09 12:06 45.60966 27.99374 36430 ft 426 kts 189°
2026-05-09 12:06 45.58051 27.98728 36727 ft 426 kts 189°
2026-05-09 12:07 45.55119 27.98079 36983 ft 427 kts 189°
2026-05-09 12:07 45.49221 27.96778 37050 ft 429 kts 189°
2026-05-09 12:08 45.43355 27.95487 37049 ft 429 kts 189°
2026-05-09 12:08 45.37430 27.94180 37049 ft 429 kts 189°
2026-05-09 12:09 45.31552 27.92891 37045 ft 429 kts 189°
2026-05-09 12:09 45.25644 27.91607 37047 ft 429 kts 189°
2026-05-09 12:10 45.16746 27.91674 37048 ft 432 kts 166°
2026-05-09 12:10 45.13909 27.93023 37046 ft 433 kts 160°
2026-05-09 12:11 45.08259 27.96061 37036 ft 433 kts 160°
2026-05-09 12:11 45.02612 27.99053 37033 ft 434 kts 160°
2026-05-09 12:12 44.96947 28.02057 37040 ft 435 kts 160°
2026-05-09 12:12 44.91310 28.05042 37041 ft 435 kts 160°
2026-05-09 12:13 44.85640 28.08039 37041 ft 435 kts 161°
2026-05-09 12:13 44.79922 28.10704 37040 ft 433 kts 166°
2026-05-09 12:14 44.74086 28.12905 37045 ft 432 kts 166°
2026-05-09 12:14 44.68284 28.15083 37039 ft 433 kts 166°
2026-05-09 12:15 44.62446 28.17276 37038 ft 433 kts 166°
2026-05-09 12:15 44.56648 28.19453 37040 ft 433 kts 166°
2026-05-09 12:16 44.50817 28.21638 37059 ft 433 kts 166°
2026-05-09 12:16 44.45000 28.23813 37064 ft 433 kts 166°
2026-05-09 12:17 44.39203 28.25969 37074 ft 433 kts 166°
2026-05-09 12:17 44.33358 28.28136 37062 ft 433 kts 166°
2026-05-09 12:18 44.27540 28.30298 37043 ft 433 kts 166°
2026-05-09 12:18 44.21739 28.32440 37039 ft 432 kts 166°
2026-05-09 12:19 44.15917 28.34585 37047 ft 432 kts 166°
2026-05-09 12:19 44.10132 28.36713 37044 ft 431 kts 167°
2026-05-09 12:20 44.04321 28.38864 37045 ft 431 kts 167°
2026-05-09 12:20 43.98529 28.40990 37024 ft 432 kts 166°
2026-05-09 12:21 43.92729 28.43111 37025 ft 432 kts 166°
2026-05-09 12:21 43.86883 28.45250 37024 ft 433 kts 167°
2026-05-09 12:22 43.81057 28.47379 37035 ft 434 kts 167°
2026-05-09 12:22 43.75212 28.49511 37035 ft 435 kts 166°
2026-05-09 12:23 43.69398 28.51765 37030 ft 435 kts 164°
2026-05-09 12:23 43.63614 28.54333 37013 ft 437 kts 163°
2026-05-09 12:24 43.57845 28.56925 37028 ft 438 kts 164°
2026-05-09 12:24 43.52037 28.59460 37028 ft 439 kts 164°
2026-05-09 12:25 43.46171 28.61980 37050 ft 440 kts 164°
2026-05-09 12:25 43.40341 28.64472 37032 ft 440 kts 165°
2026-05-09 12:26 43.34497 28.66971 37036 ft 441 kts 165°
2026-05-09 12:26 43.28624 28.69490 37042 ft 441 kts 165°
2026-05-09 12:27 43.22787 28.71999 37040 ft 442 kts 165°
2026-05-09 12:27 43.16885 28.74530 37041 ft 442 kts 165°
2026-05-09 12:28 43.11032 28.77020 37040 ft 443 kts 165°
2026-05-09 12:28 43.05052 28.78988 37048 ft 439 kts 177°
2026-05-09 12:29 42.98982 28.79014 37044 ft 437 kts 183°
2026-05-09 12:29 42.92903 28.78842 37049 ft 438 kts 183°
2026-05-09 12:30 42.86812 28.78678 37046 ft 438 kts 183°
2026-05-09 12:30 42.77654 28.78440 37043 ft 438 kts 184°
2026-05-09 12:31 42.69552 28.78225 37045 ft 438 kts 183°
2026-05-09 12:32 42.63432 28.78063 37049 ft 439 kts 184°
2026-05-09 12:32 42.57346 28.77897 37044 ft 439 kts 184°
2026-05-09 12:33 42.51233 28.77734 37043 ft 439 kts 184°
2026-05-09 12:33 42.45116 28.77571 37045 ft 439 kts 184°
2026-05-09 12:34 42.39030 28.77407 37036 ft 439 kts 184°
2026-05-09 12:34 42.32918 28.77245 36975 ft 440 kts 184°
2026-05-09 12:34 42.29855 28.77164 35998 ft 443 kts 184°
2026-05-09 12:35 42.26767 28.77082 35364 ft 444 kts 184°
2026-05-09 12:35 42.23660 28.77004 34939 ft 440 kts 184°
2026-05-09 12:35 42.20635 28.76930 34450 ft 439 kts 184°
2026-05-09 12:35 42.17580 28.76856 33950 ft 437 kts 185°
2026-05-09 12:36 42.14531 28.76781 33419 ft 434 kts 185°
2026-05-09 12:36 42.11536 28.76705 32938 ft 431 kts 185°
2026-05-09 12:36 42.08553 28.76625 32434 ft 427 kts 184°
2026-05-09 12:36 42.05563 28.76608 31940 ft 425 kts 182°
2026-05-09 12:37 42.02633 28.76693 31468 ft 421 kts 181°
2026-05-09 12:37 41.99722 28.76838 30976 ft 418 kts 181°
2026-05-09 12:37 41.96824 28.76999 30514 ft 415 kts 181°
2026-05-09 12:37 41.93949 28.77152 30037 ft 412 kts 181°
2026-05-09 12:38 41.91107 28.77293 29546 ft 408 kts 181°
2026-05-09 12:38 41.88266 28.77421 29106 ft 403 kts 181°
2026-05-09 12:38 41.85476 28.77560 28669 ft 399 kts 180°
2026-05-09 12:38 41.82717 28.77775 28238 ft 396 kts 179°
2026-05-09 12:39 41.79992 28.78043 27814 ft 392 kts 179°
2026-05-09 12:39 41.77284 28.78333 27404 ft 389 kts 179°
2026-05-09 12:39 41.74574 28.78627 26983 ft 386 kts 179°
2026-05-09 12:39 41.71923 28.79011 26566 ft 386 kts 172°
2026-05-09 12:40 41.69360 28.80051 26162 ft 388 kts 159°
2026-05-09 12:40 41.67008 28.81817 25787 ft 389 kts 146°
2026-05-09 12:40 41.64994 28.84215 25475 ft 389 kts 134°
2026-05-09 12:40 41.63262 28.86964 25147 ft 386 kts 132°
2026-05-09 12:41 41.61550 28.89715 24828 ft 384 kts 132°
2026-05-09 12:41 41.59836 28.92468 24496 ft 381 kts 132°
2026-05-09 12:41 41.58157 28.95161 24193 ft 379 kts 132°
2026-05-09 12:41 41.56459 28.97879 23875 ft 376 kts 132°
2026-05-09 12:42 41.54800 29.00536 23555 ft 374 kts 132°
2026-05-09 12:42 41.53146 29.03180 23211 ft 372 kts 132°
2026-05-09 12:42 41.51495 29.05815 22909 ft 370 kts 132°
2026-05-09 12:42 41.49759 29.08338 22607 ft 366 kts 141°
2026-05-09 12:43 41.47748 29.10358 22303 ft 360 kts 152°
2026-05-09 12:43 41.45544 29.11880 21997 ft 357 kts 157°
2026-05-09 12:43 41.43319 29.13324 21681 ft 355 kts 157°
2026-05-09 12:43 41.41101 29.14771 21382 ft 353 kts 156°
2026-05-09 12:44 41.38883 29.16221 21084 ft 352 kts 156°
2026-05-09 12:44 41.36702 29.17649 20779 ft 351 kts 156°
2026-05-09 12:44 41.34542 29.19156 20478 ft 352 kts 149°
2026-05-09 12:44 41.32705 29.21311 20198 ft 353 kts 131°
2026-05-09 12:45 41.31426 29.24060 19868 ft 355 kts 114°
2026-05-09 12:45 41.30808 29.27283 19546 ft 358 kts 96°
2026-05-09 12:45 41.30774 29.30569 19118 ft 360 kts 91°
2026-05-09 12:45 41.30794 29.33858 18851 ft 354 kts 90°
2026-05-09 12:46 41.30819 29.37114 18472 ft 352 kts 90°
2026-05-09 12:46 41.31137 29.40322 18015 ft 349 kts 75°
2026-05-09 12:46 41.32071 29.43312 17417 ft 347 kts 58°
2026-05-09 12:46 41.33544 29.45828 17030 ft 344 kts 43°
2026-05-09 12:47 41.35402 29.47777 16670 ft 340 kts 32°
2026-05-09 12:47 41.37345 29.49542 16301 ft 338 kts 32°
2026-05-09 12:47 41.39275 29.51306 15915 ft 337 kts 33°
2026-05-09 12:47 41.41211 29.53084 15525 ft 336 kts 33°
2026-05-09 12:48 41.43131 29.54848 15128 ft 337 kts 33°
2026-05-09 12:48 41.45045 29.56640 14729 ft 338 kts 38°
2026-05-09 12:48 41.46543 29.59012 14374 ft 338 kts 63°
2026-05-09 12:48 41.47150 29.62020 14019 ft 333 kts 89°
2026-05-09 12:49 41.46766 29.65013 13691 ft 325 kts 116°
2026-05-09 12:49 41.45655 29.67561 13286 ft 316 kts 127°
2026-05-09 12:49 41.44426 29.69959 12697 ft 312 kts 128°
2026-05-09 12:49 41.43193 29.72311 12286 ft 313 kts 128°
2026-05-09 12:50 41.41933 29.74703 12004 ft 311 kts 128°
2026-05-09 12:50 41.40696 29.77057 11523 ft 308 kts 128°
2026-05-09 12:50 41.39486 29.79368 11239 ft 303 kts 128°
2026-05-09 12:50 41.38296 29.81646 11112 ft 296 kts 128°
2026-05-09 12:51 41.37181 29.83947 11014 ft 290 kts 120°
2026-05-09 12:51 41.36319 29.86306 11026 ft 283 kts 120°
2026-05-09 12:51 41.35447 29.88676 11033 ft 282 kts 120°
2026-05-09 12:51 41.34583 29.91015 11025 ft 282 kts 120°
2026-05-09 12:52 41.33721 29.93349 11028 ft 280 kts 120°
2026-05-09 12:52 41.32813 29.95602 11026 ft 278 kts 128°
2026-05-09 12:52 41.31498 29.97439 10862 ft 271 kts 149°
2026-05-09 12:52 41.29805 29.98444 10613 ft 261 kts 172°
2026-05-09 12:53 41.28043 29.98496 10381 ft 253 kts 193°
2026-05-09 12:53 41.26423 29.97684 10129 ft 249 kts 214°
2026-05-09 12:53 41.25119 29.96213 9933 ft 247 kts 225°
2026-05-09 12:53 41.23878 29.94624 9754 ft 244 kts 225°
2026-05-09 12:54 41.22664 29.93086 9496 ft 241 kts 224°
2026-05-09 12:54 41.21462 29.91571 9215 ft 239 kts 224°
2026-05-09 12:54 41.20246 29.90038 8946 ft 238 kts 224°
2026-05-09 12:54 41.19067 29.88553 8669 ft 236 kts 224°
2026-05-09 12:55 41.17880 29.87056 8396 ft 235 kts 224°
2026-05-09 12:55 41.16691 29.85555 8120 ft 233 kts 224°
2026-05-09 12:55 41.15523 29.84080 7846 ft 232 kts 224°
2026-05-09 12:55 41.14363 29.82619 7577 ft 230 kts 224°
2026-05-09 12:56 41.13203 29.81154 7305 ft 228 kts 224°
2026-05-09 12:56 41.12065 29.79714 7038 ft 225 kts 224°
2026-05-09 12:56 41.10947 29.78300 6772 ft 221 kts 224°
2026-05-09 12:56 41.09826 29.76889 6515 ft 221 kts 224°
2026-05-09 12:57 41.08725 29.75504 6245 ft 219 kts 225°
2026-05-09 12:57 41.07620 29.74118 5980 ft 216 kts 224°
2026-05-09 12:57 41.06540 29.72762 5716 ft 212 kts 224°
2026-05-09 12:57 41.05475 29.71422 5457 ft 211 kts 224°
2026-05-09 12:58 41.04423 29.70099 5192 ft 208 kts 225°
2026-05-09 12:58 41.03536 29.68585 4921 ft 207 kts 239°
2026-05-09 12:58 41.02810 29.66958 4633 ft 205 kts 238°
2026-05-09 12:58 41.02084 29.65345 4336 ft 206 kts 238°
2026-05-09 12:59 41.01346 29.63712 4068 ft 204 kts 238°
2026-05-09 12:59 41.00622 29.62112 3793 ft 203 kts 238°
2026-05-09 12:59 40.99902 29.60562 3699 ft 196 kts 234°
2026-05-09 12:59 40.99148 29.59089 3609 ft 189 kts 239°
2026-05-09 13:00 40.98522 29.57585 3524 ft 186 kts 243°
2026-05-09 13:00 40.97946 29.56064 3516 ft 187 kts 244°
2026-05-09 13:00 40.97377 29.54521 3522 ft 184 kts 244°
2026-05-09 13:00 40.96847 29.53071 3529 ft 167 kts 244°
2026-05-09 13:01 40.96363 29.51747 3493 ft 150 kts 244°
2026-05-09 13:01 40.95926 29.50553 3379 ft 140 kts 244°
2026-05-09 13:01 40.95511 29.49416 3200 ft 135 kts 245°
2026-05-09 13:01 40.95109 29.48318 3021 ft 133 kts 244°
2026-05-09 13:02 40.94709 29.47224 2813 ft 133 kts 245°
2026-05-09 13:02 40.94311 29.46135 2621 ft 132 kts 245°
2026-05-09 13:02 40.93906 29.45030 2410 ft 131 kts 245°
2026-05-09 13:02 40.93513 29.43957 2202 ft 130 kts 245°
2026-05-09 13:03 40.93114 29.42869 2022 ft 132 kts 246°
2026-05-09 13:03 40.92718 29.41787 1805 ft 131 kts 244°
2026-05-09 13:03 40.92319 29.40699 1610 ft 132 kts 244°
2026-05-09 13:03 40.91921 29.39613 1395 ft 131 kts 245°
2026-05-09 13:04 40.91513 29.38502 1192 ft 135 kts 245°
2026-05-09 13:04 40.91107 29.37400 978 ft 132 kts 245°
2026-05-09 13:04 40.90719 29.36326 785 ft 130 kts 244°
2026-05-09 13:04 40.90316 29.35230 609 ft 131 kts 246°
2026-05-09 13:05 40.89922 29.34167 390 ft 128 kts 246°
2026-05-09 13:05 40.89550 29.33143 294 ft 111 kts 244°
2026-05-09 13:05 40.89284 29.32427 302 ft 62 kts 244°
2026-05-09 13:05 40.89146 29.32034 303 ft 40 kts 251°
2026-05-09 13:06 40.89126 29.31735 301 ft 21 kts 274°
2026-05-09 13:06 40.89130 29.31663 301 ft 1 kts 275°
2026-05-09 13:06 40.89133 29.31639 301 ft 5 kts 287°
2026-05-09 13:06 40.89174 29.31605 301 ft 9 kts
2026-05-09 13:07 40.89214 29.31671 303 ft 11 kts 66°
2026-05-09 13:07 40.89250 29.31768 302 ft 13 kts 63°
2026-05-09 13:07 40.89293 29.31883 304 ft 13 kts 64°
2026-05-09 13:07 40.89332 29.31959 302 ft 10 kts 28°
2026-05-09 13:08 40.89402 29.31932 302 ft 12 kts 334°
2026-05-09 13:08 40.89489 29.31876 302 ft 15 kts 334°
2026-05-09 13:08 40.89591 29.31811 306 ft 14 kts 334°
2026-05-09 13:08 40.89683 29.31752 308 ft 15 kts 334°
2026-05-09 13:09 40.89781 29.31689 311 ft 16 kts 334°
2026-05-09 13:09 40.89859 29.31638 311 ft 12 kts 334°
2026-05-09 13:09 40.89905 29.31565 311 ft 12 kts 265°
2026-05-09 13:09 40.89868 29.31454 311 ft 15 kts 244°
2026-05-09 13:10 40.89820 29.31324 310 ft 16 kts 244°
2026-05-09 13:10 40.89772 29.31196 310 ft 11 kts 244°
2026-05-09 13:10 40.89798 29.31117 311 ft 12 kts 332°
2026-05-09 13:10 40.89888 29.31064 311 ft 16 kts 340°
2026-05-09 13:11 40.89999 29.31011 311 ft 18 kts 334°
2026-05-09 13:11 40.90109 29.30939 311 ft 15 kts 334°
2026-05-09 13:11 40.90208 29.30876 311 ft 12 kts 338°
2026-05-09 13:11 40.90262 29.30929 311 ft 12 kts 63°
2026-05-09 13:12 40.90301 29.31034 311 ft 14 kts 64°
2026-05-09 13:12 40.90346 29.31158 311 ft 16 kts 64°
2026-05-09 13:12 40.90398 29.31297 311 ft 15 kts 64°
2026-05-09 13:12 40.90435 29.31399 311 ft 13 kts 64°
2026-05-09 13:13 40.90464 29.31480 309 ft 6 kts 75°
2026-05-09 13:13 40.90436 29.31519 311 ft 7 kts 153°
2026-05-09 13:13 40.90407 29.31537 311 ft 1 kts 154°
2026-05-09 13:13 40.90402 29.31541 311 ft 0 kts 154°